Location: Cossonay
(46.5833°N, 6.4167°E)
Time: 01:09:03
(UTC+00:00)

STARLINK-1029 - Pass Details

Date: 07 June 2020
Orbit: 379 x 387 km, 53.0° (Epoch: 12 July)

Event Time Altitude Azimuth Distance (km) Brightness Sun altitude
Exits shadow 00:51:33 60° 130° (SE) 447 3.0 -18.4°
Drops below altitude 10° 00:54:32 10° 65° (ENE) 1,413 6.3 -18.2°
Enters shadow 01:49:54 -70° 245° (WSW) 12,357 10.4 -14.1°
